Lapse_Rate
6.0 5.9 5.9 6.2 6.2 6.4 6.5 6.5 6.5 6.6 6.8 7.1 6.8 6.3 6.4 6.1 6.2 5.7 5.9 5.6 5.9 5.9 5.9 6.0 5.9 5.9 5.9 5.8 5.7 5.5 5.6 5.4 5.4 5.6 5.4 5.4 5.5 5.4 5.4 5.0 4.6 4.3 4.0
6.1 6.2 6.0 6.1 6.2 6.4 6.6 6.5 6.7 6.8 6.8 6.5 6.3 6.2 6.3 6.0 6.1 5.9 5.7 5.3 5.7 5.6 5.8 5.7 5.8 5.8 5.8 5.7 5.6 5.7 5.5 5.5 5.5 5.6 5.5 5.5 5.3 4.9 4.8 4.4 3.9 3.3 3.0
6.1 6.3 6.3 6.7 6.4 6.5 6.5 6.6 6.7 6.7 6.3 6.3 6.5 5.9 5.8 6.2 5.8 5.5 5.2 5.5 5.5 5.5 5.5 5.7 5.6 5.7 5.6 5.6 5.7 5.6 5.6 5.6 5.4 5.3 5.4 5.0 4.8 4.5 4.1 3.6 3.2 2.9 2.8
6.9 6.4 6.1 6.4 6.3 6.4 6.5 6.5 6.4 6.5 6.5 6.7 6.0 5.8 6.1 5.3 5.2 5.0 5.0 5.5 5.6 5.5 5.5 5.5 5.7 5.6 5.7 5.7 5.7 5.6 5.6 5.6 5.4 5.1 4.9 4.5 4.2 3.8 3.4 3.2 3.3 2.8 3.3
6.8 6.4 6.0 6.4 6.2 6.4 6.5 6.1 6.3 6.2 6.3 6.1 6.1 5.9 5.5 4.7 5.0 5.3 5.4 5.5 5.5 5.6 5.4 5.5 5.5 5.5 5.5 5.5 5.4 5.4 5.4 5.1 4.7 4.4 4.2 3.9 3.5 3.3 2.8 2.9 3.1 3.9 4.9
6.5 5.9 6.1 6.2 6.2 6.3 6.1 6.3 6.1 6.2 6.1 5.9 5.6 5.6 4.9 4.8 5.3 5.4 5.4 5.6 5.5 5.6 5.5 5.5 5.5 5.5 5.4 5.3 5.3 5.1 4.8 4.4 4.2 3.7 3.5 3.3 2.9 2.7 2.7 3.3 4.3 4.7 5.0
6.2 6.1 6.1 6.3 6.3 6.0 5.7 5.7 5.9 5.9 5.8 5.5 5.6 5.1 5.1 5.1 5.3 5.4 5.5 5.5 5.5 5.5 5.4 5.5 5.5 5.4 5.4 5.4 5.2 4.8 4.4 4.0 3.4 3.1 3.0 2.8 2.9 3.2 4.2 4.6 4.4 4.3 4.6
6.0 6.2 6.3 6.0 6.2 5.8 5.7 6.0 5.8 5.9 5.4 5.2 4.8 5.0 5.0 5.2 5.4 5.4 5.5 5.5 5.4 5.4 5.5 5.4 5.5 5.5 5.3 5.0 4.7 4.2 3.9 3.7 3.1 2.9 2.9 3.3 4.2 4.7 4.3 4.1 4.1 4.1 4.6
6.2 6.3 6.2 5.5 5.6 5.6 5.6 5.5 5.2 5.4 5.2 5.1 5.2 5.0 5.3 5.5 5.4 5.3 5.3 5.3 5.5 5.4 5.3 5.4 5.4 5.1 4.8 4.5 4.1 3.9 3.8 3.4 3.2 3.2 3.8 4.6 4.4 4.4 4.5 4.8 4.7 5.1 5.6
5.8 6.4 5.6 5.3 5.0 5.4 5.8 5.5 5.1 5.0 5.0 4.9 5.1 5.4 5.4 5.2 5.3 5.3 5.4 5.4 5.2 5.4 5.4 5.1 4.8 4.6 4.4 4.1 3.8 3.8 3.6 3.6 4.0 4.9 4.9 4.9 5.0 5.0 5.0 5.0 5.0 5.3 5.6
5.7 5.2 5.1 5.4 5.5 5.1 4.9 5.0 4.8 4.7 5.1 5.3 5.3 5.3 5.1 5.1 5.3 5.3 5.4 5.6 5.7 5.6 5.4 4.9 4.6 4.4 4.0 3.7 3.7 3.6 3.7 4.5 5.4 5.1 5.3 5.2 5.3 5.2 5.3 5.2 5.3 5.5 5.8
5.0 5.0 4.8 5.1 5.0 4.9 4.7 4.8 5.0 5.2 5.1 5.1 5.0 5.0 5.3 5.4 5.5 5.5 5.5 5.5 5.3 5.1 4.7 4.5 4.1 3.8 3.6 3.5 3.5 3.7 4.7 5.2 5.2 5.3 5.4 5.4 5.5 5.6 5.7 5.6 5.7 5.7 5.9
5.3 5.4 5.6 5.3 4.9 5.0 5.2 5.2 5.1 5.0 5.0 5.0 5.2 5.5 5.4 5.4 5.5 5.6 5.4 5.1 4.8 4.6 4.4 4.0 3.8 3.5 3.5 3.5 4.0 4.9 5.0 5.2 5.3 5.4 5.5 5.5 5.6 5.8 5.9 5.9 6.0 6.1 6.3
5.0 5.1 4.8 5.0 5.0 5.0 4.9 4.7 4.8 5.1 5.2 5.3 5.6 5.6 5.6 5.6 5.5 5.3 5.0 4.7 4.5 4.2 4.1 3.9 3.8 3.8 3.8 4.5 5.0 4.9 5.0 5.2 5.4 5.5 5.5 5.5 5.7 5.8 6.0 6.2 6.4 6.5 6.8
4.9 4.7 4.6 4.7 4.7 4.8 4.8 5.0 5.3 5.4 5.5 5.6 5.7 5.7 5.6 5.4 5.2 4.9 4.7 4.5 4.3 4.1 3.8 3.8 3.9 3.8 4.6 5.0 5.0 5.0 5.0 5.2 5.3 5.3 5.5 5.8 6.0 6.2 6.4 6.5 6.6 6.7 6.9
4.6 4.6 4.8 4.8 5.0 5.1 5.4 5.6 5.5 5.6 5.6 5.6 5.5 5.4 5.3 5.0 4.8 4.6 4.4 4.1 3.8 3.7 3.8 4.2 4.2 4.9 5.2 5.2 5.3 5.2 5.1 5.3 5.3 5.5 5.7 5.9 6.2 6.4 6.6 6.7 6.8 6.7 6.7
4.9 5.1 5.2 5.3 5.4 5.5 5.5 5.6 5.6 5.6 5.6 5.5 5.5 5.3 5.0 4.6 4.5 4.3 4.0 3.7 3.6 3.8 4.2 4.5 5.0 5.2 5.3 5.2 5.3 5.3 5.3 5.3 5.5 5.7 5.9 6.1 6.3 6.7 6.8 6.8 6.7 6.6 6.6
5.2 5.3 5.4 5.5 5.5 5.6 5.6 5.7 5.7 5.6 5.5 5.3 5.0 4.7 4.5 4.3 4.0 3.8 3.6 3.8 4.0 4.1 4.6 5.0 5.2 5.3 5.4 5.4 5.3 5.3 5.4 5.6 5.7 6.0 6.1 6.2 6.5 7.0 7.1 7.0 6.7 6.4 6.3
5.4 5.5 5.6 5.6 5.6 5.7 5.7 5.6 5.6 5.5 5.4 5.2 4.9 4.4 4.1 3.8 3.6 3.4 3.6 4.1 4.4 4.7 5.0 5.3 5.3 5.4 5.4 5.4 5.3 5.3 5.6 5.8 6.0 5.8 6.0 6.3 6.5 6.7 6.8 6.5 6.2 5.8 5.7
5.6 5.6 5.5 5.6 5.7 5.6 5.6 5.6 5.5 5.5 5.3 4.9 4.5 4.1 3.6 3.2 3.1 3.1 3.8 4.5 4.8 5.1 5.2 5.3 5.4 5.4 5.4 5.4 5.4 5.6 5.8 6.0 5.9 5.9 6.0 5.8 5.9 5.9 5.9 5.6 5.6 5.7 5.6
5.5 5.5 5.6 5.7 5.7 5.7 5.7 5.6 5.6 5.4 5.0 4.5 4.0 3.4 2.8 2.5 2.5 3.4 4.2 4.9 5.1 5.2 5.2 5.4 5.4 5.4 5.5 5.5 5.6 5.8 5.9 5.8 5.8 5.8 5.6 5.4 5.3 5.3 5.2 5.3 5.4 5.5 5.4
5.5 5.6 5.7 5.7 5.7 5.8 5.7 5.7 5.4 5.1 4.7 4.1 3.3 2.6 2.1 1.9 2.7 3.7 4.6 5.0 5.1 5.2 5.4 5.4 5.5 5.7 5.6 5.6 5.8 5.8 5.9 5.9 5.7 5.6 5.6 5.5 5.4 5.3 5.3 5.3 5.2 5.0 4.8
5.7 5.7 5.7 5.8 5.8 5.7 5.7 5.5 5.3 4.8 4.2 3.4 2.8 2.3 2.1 2.7 3.2 4.1 4.8 4.9 5.0 5.3 5.5 5.6 5.7 5.6 5.6 5.6 5.6 5.8 5.9 5.9 5.6 5.5 5.7 5.5 5.0 5.0 5.0 4.9 4.8 4.8 4.8
5.7 5.8 5.8 5.7 5.7 5.7 5.6 5.4 5.0 4.5 3.7 3.1 2.7 2.3 2.9 3.4 4.0 4.6 4.8 4.9 5.2 5.5 5.6 5.7 5.8 5.8 5.8 5.7 5.7 5.8 5.9 5.7 5.6 5.6 5.2 5.0 5.0 5.0 5.0 4.8 4.8 4.9 4.9
5.8 5.8 5.7 5.7 5.8 5.6 5.4 5.1 4.6 4.1 3.4 3.3 3.0 3.4 3.8 4.3 4.7 4.8 4.9 5.2 5.4 5.6 5.7 5.9 5.9 5.9 5.8 5.9 5.9 5.8 5.9 5.8 5.8 5.7 5.5 5.3 5.2 5.1 4.9 4.9 5.0 5.1 5.0
5.8 5.7 5.7 5.7 5.6 5.5 5.2 4.9 4.2 3.8 3.7 3.5 4.0 4.4 4.6 4.8 5.0 5.1 5.3 5.6 5.7 5.8 5.9 6.0 6.0 6.0 5.9 5.9 5.8 5.8 5.8 5.9 5.9 5.9 5.7 5.5 5.5 5.3 5.1 5.1 5.0 5.1 4.9
Wind_Speed
12 13 13 12 13 13 12 13 13 12 13 13 12 11 9 7 6 5 5 4 4 3 2 2 2 2 1 1 1 2 3 2 6 4 3 4 4 7 11 16 20 21 21
14 14 13 14 13 14 13 14 14 14 12 12 11 10 7 6 5 6 4 4 3 1 1 1 3 2 2 2 2 4 3 3 3 12 6 6 7 7 9 11 13 19 19
14 15 14 14 14 13 14 14 13 13 13 11 10 9 8 5 5 5 5 4 1 0 2 3 4 3 4 3 3 4 3 5 4 6 9 6 5 7 10 9 10 10 17
15 15 15 14 13 14 14 14 14 13 12 11 10 9 8 6 5 4 5 4 3 3 3 3 4 4 4 5 5 6 5 4 4 6 7 6 7 10 7 9 10 8 10
15 15 14 14 13 13 13 13 13 13 11 11 10 9 7 5 4 5 3 3 4 4 5 5 4 5 10 9 4 4 4 4 4 4 5 7 10 10 9 9 10 11 13
14 15 14 14 14 13 13 13 13 12 11 10 8 7 5 4 9 6 4 3 4 4 5 5 5 8 7 12 15 16 13 7 3 3 7 10 11 9 9 9 10 11 12
13 14 13 14 14 13 13 12 12 11 9 7 6 6 5 4 7 6 6 3 4 5 5 5 5 5 9 6 11 16 15 15 17 11 11 10 11 11 10 10 11 10 11
13 14 14 15 14 12 11 11 11 9 9 6 5 5 4 4 7 6 7 4 4 5 5 5 5 6 7 10 6 5 6 6 6 7 9 10 10 11 12 11 12 10 11
14 15 12 11 12 11 10 9 6 8 6 4 4 5 5 4 4 3 3 1 3 5 5 5 6 6 13 18 10 6 6 6 12 21 23 23 24 27 20 9 8 9 11
12 10 10 10 10 11 9 8 2 4 5 4 4 4 4 2 1 2 2 2 2 4 5 6 12 13 19 20 12 8 7 7 9 8 6 10 15 13 20 9 7 9 10
9 10 10 9 9 7 6 3 4 4 5 4 5 4 4 2 2 6 8 1 3 3 3 4 4 18 20 22 21 6 9 13 10 6 8 8 8 8 8 7 7 7 10
10 8 9 7 7 6 6 4 5 5 6 5 5 4 4 5 9 9 11 11 13 4 5 4 7 18 21 21 15 18 19 15 7 7 8 8 8 9 8 9 11 10 12
10 9 9 7 5 5 5 5 4 5 4 4 3 3 3 3 4 10 12 13 14 8 5 13 19 19 18 12 16 18 15 6 6 7 8 9 8 8 11 10 11 12 11
11 9 5 6 6 5 4 4 4 4 3 2 3 3 3 3 3 4 3 4 10 9 12 5 11 12 13 13 10 8 5 5 7 7 8 9 9 9 9 8 9 9 9
8 5 5 5 5 5 4 4 4 1 3 2 1 1 1 3 4 9 10 7 6 8 10 3 4 5 6 6 6 6 6 7 7 7 8 9 10 9 9 9 8 9 9
7 5 4 4 4 4 4 3 6 4 4 2 2 1 2 5 11 14 16 16 15 16 4 5 6 5 6 7 8 8 7 10 7 8 9 9 9 10 10 10 8 9 10
6 5 5 5 4 3 3 4 3 4 8 10 9 9 10 10 12 15 15 15 14 11 3 4 5 6 6 7 7 7 9 9 9 8 9 9 10 9 13 10 9 9 10
6 12 4 4 4 4 4 3 2 3 3 3 6 9 10 11 12 15 14 12 6 7 3 5 6 6 7 7 7 8 9 9 9 9 9 9 10 9 10 10 9 10 10
6 4 4 4 4 5 3 3 3 3 3 3 3 6 8 12 12 12 13 3 5 6 5 6 6 6 7 7 8 8 9 9 10 9 10 9 10 9 10 10 10 19 18
5 12 8 4 4 4 3 3 3 3 3 3 3 3 4 4 3 5 3 3 4 5 6 6 7 7 7 7 8 8 9 10 10 9 9 9 9 9 10 10 10 10 10
4 4 9 4 4 3 3 3 2 3 3 3 3 5 14 2 3 3 5 4 4 6 6 7 8 8 7 7 8 8 9 9 10 9 10 10 10 9 10 9 10 10 10
4 4 4 4 3 3 2 3 3 3 3 3 3 4 13 3 2 3 5 5 5 6 6 7 8 7 8 8 8 9 9 10 10 10 10 11 10 10 10 9 9 9 8
4 4 4 3 3 4 3 3 3 3 3 3 4 5 4 5 5 4 5 6 6 7 10 8 8 8 10 11 13 9 9 10 11 10 12 11 9 8 9 9 10 10 9
5 4 4 3 2 3 3 3 3 6 5 4 4 5 4 5 5 7 6 6 7 7 12 11 9 10 9 13 15 16 16 17 17 10 12 9 8 10 9 9 9 11 9
4 4 3 2 3 2 3 3 3 3 4 5 5 5 5 6 6 6 6 6 7 8 9 13 13 13 15 18 19 21 23 30 28 19 6 6 9 11 9 8 10 10 11
4 3 2 2 2 2 3 3 2 2 3 4 4 4 5 5 6 6 6 7 7 9 11 12 15 18 19 18 19 22 29 31 24 21 12 6 7 8 7 8 10 8 10
Wind_Direction
126 120 124 129 134 133 139 141 141 136 135 132 132 130 137 135 131 119 123 127 120 121 116 191 236 226 254 291 275 262 259 232 276 293 274 291 289 288 298 296 295 294 293
118 120 122 129 131 138 138 141 140 136 132 131 127 124 128 122 121 105 134 134 131 160 258 276 266 269 273 258 251 266 243 258 255 298 299 293 282 286 288 289 287 288 290
123 123 124 124 130 132 137 135 134 129 128 124 122 118 121 114 105 114 109 101 109 332 290 270 271 261 276 268 257 258 244 269 262 277 292 294 290 296 291 285 284 287 284
119 121 123 122 134 135 133 134 132 122 120 118 112 113 100 93 92 87 80 65 38 22 350 331 292 272 265 264 248 251 260 258 259 270 284 289 290 301 290 297 300 292 293
119 119 120 129 132 125 123 126 118 117 117 114 115 110 119 123 126 96 78 60 26 352 343 327 306 279 296 299 291 258 250 257 261 269 272 292 302 308 302 300 294 301 295
114 117 125 125 121 121 118 111 108 105 102 101 102 117 129 137 107 95 88 49 14 347 318 311 302 300 288 297 305 303 298 290 266 251 294 297 297 296 299 297 294 299 300
110 110 114 112 105 100 100 114 108 102 105 100 98 121 122 127 116 86 51 39 1 332 317 312 317 319 325 299 293 295 298 297 301 303 298 289 289 293 289 290 283 282 289
96 97 95 92 98 114 113 107 106 116 122 137 124 112 132 134 104 70 49 33 358 335 325 329 326 308 303 310 286 267 265 266 269 279 274 284 281 287 290 296 299 297 291
85 85 89 106 105 102 97 88 100 105 106 112 128 120 108 113 123 82 75 47 356 327 314 309 309 304 307 311 310 281 273 276 283 294 299 301 304 305 303 306 297 301 295
71 78 99 98 101 90 84 103 103 128 118 108 95 99 150 134 206 338 353 161 302 288 287 287 306 317 315 311 312 313 312 295 286 290 301 301 297 283 298 293 284 286 289
112 99 94 93 100 111 130 129 117 103 90 94 80 55 56 109 304 332 331 220 269 292 295 302 298 315 311 320 320 325 299 308 332 320 306 302 300 295 293 288 282 276 286
107 112 112 130 139 132 127 108 92 94 85 77 69 48 40 22 9 359 359 349 338 338 310 289 286 305 326 322 322 315 317 332 325 311 305 301 299 297 296 293 287 276 266
144 122 99 104 106 108 103 98 80 73 74 61 64 62 6 0 5 360 352 345 337 325 300 304 327 327 325 327 320 323 328 319 308 305 300 297 295 292 294 291 289 280 272
92 100 115 114 102 84 71 72 85 77 78 83 63 36 356 350 336 314 311 317 312 308 294 304 331 334 327 320 322 314 301 302 299 299 295 294 296 298 296 294 290 298 294
124 118 103 88 90 86 71 95 100 152 139 117 138 124 352 340 324 339 338 323 311 326 343 350 332 329 325 322 318 309 309 307 305 303 298 301 300 299 295 298 291 290 283
114 109 115 105 94 87 99 69 57 91 67 68 79 40 253 323 339 340 331 332 346 340 6 333 326 320 319 318 315 313 307 308 302 302 299 295 296 297 297 296 294 293 289
121 118 102 102 100 103 87 80 55 352 26 28 19 3 351 351 348 344 340 348 347 352 335 319 312 313 313 308 304 303 305 306 303 297 294 294 293 291 301 299 295 291 291
102 113 106 107 103 87 76 69 62 41 14 354 358 360 356 349 349 350 349 354 339 342 312 305 309 311 310 304 303 302 303 304 304 299 296 298 297 293 296 295 295 294 293
108 106 104 93 86 79 65 53 45 30 14 348 336 356 350 336 353 357 355 339 322 323 318 312 306 306 302 301 302 301 299 301 303 305 299 295 296 297 294 292 291 298 303
106 105 98 86 72 59 49 43 24 13 3 357 346 325 309 358 0 346 329 309 308 311 311 308 306 303 300 299 299 301 302 303 303 299 296 295 296 295 292 293 294 296 297
95 89 96 76 68 60 56 27 6 5 356 344 326 324 339 45 325 313 318 316 313 310 310 306 304 302 299 298 298 298 299 297 295 295 296 297 297 298 297 292 290 290 289
100 96 86 81 68 44 34 31 18 1 344 329 319 325 344 348 302 303 315 309 306 303 302 299 298 298 298 298 300 299 298 296 296 295 295 298 299 296 294 291 294 295 297
93 88 80 70 58 40 27 18 359 339 334 328 322 331 336 331 322 311 310 310 309 310 304 301 299 301 303 302 300 292 290 289 291 293 294 295 296 309 314 313 313 317 316
92 89 83 67 45 49 15 356 344 352 348 338 332 327 319 322 316 312 308 307 310 304 302 300 299 297 299 303 303 300 293 289 293 292 305 321 316 318 318 319 325 320 318
93 88 87 82 53 24 340 341 343 344 339 332 321 321 317 311 304 302 307 308 304 300 302 305 302 301 303 303 301 299 299 309 313 316 306 308 308 310 311 322 326 320 322
102 102 101 72 40 331 323 327 314 303 312 307 303 301 299 298 304 307 305 302 304 306 305 305 305 304 304 304 302 307 312 317 324 341 327 314 315 318 317 319 323 327 324